Satellite: NOAA-12 Catalog number: 21263 Epoch time: 13052.35991283 Element set: 728 Inclination: 098.7111 deg RA of node: 078.6044 deg Eccentricity: 0.0013304 Arg of perigee: 193.8800 deg Mean anomaly: 166.2018 deg Mean motion: 14.25547499 rev/day Decay rate: 2.2e-07 rev/day^2 Epoch rev: 13205 Checksum: 281
Satellite: MET-3/5 Catalog number: 21655 Epoch time: 13051.86765315 Element set: 625 Inclination: 082.5608 deg RA of node: 336.4839 deg Eccentricity: 0.0014350 Arg of perigee: 063.5866 deg Mean anomaly: 296.6728 deg Mean motion: 13.17046507 rev/day Decay rate: -1.20e-06 rev/day^2 Epoch rev: 3462 Checksum: 306
Satellite: MET-2/21 Catalog number: 22782 Epoch time: 13052.87987406 Element set: 670 Inclination: 082.5510 deg RA of node: 194.3922 deg Eccentricity: 0.0023164 Arg of perigee: 170.0807 deg Mean anomaly: 354.9547 deg Mean motion: 13.83699586 rev/day Decay rate: 5.1e-07 rev/day^2 Epoch rev: 98369 Checksum: 336
Satellite: OKEAN-4 Catalog number: 23317 Epoch time: 13052.23718690 Element set: 145 Inclination: 082.5418 deg RA of node: 158.2910 deg Eccentricity: 0.0019676 Arg of perigee: 248.5640 deg Mean anomaly: 111.3478 deg Mean motion: 14.84257925 rev/day Decay rate: 8.37e-06 rev/day^2 Epoch rev: 99174 Checksum: 319
Satellite: NOAA-14 Catalog number: 23455 Epoch time: 13052.35810269 Element set: 210 Inclination: 098.8115 deg RA of node: 138.5297 deg Eccentricity: 0.0009255 Arg of perigee: 332.7813 deg Mean anomaly: 027.2872 deg Mean motion: 14.13893417 rev/day Decay rate: 1.3e-07 rev/day^2 Epoch rev: 93600 Checksum: 289
Satellite: NOAA-15 Catalog number: 25338 Epoch time: 13052.22725096 Element set: 628 Inclination: 098.7146 deg RA of node: 043.1127 deg Eccentricity: 0.0011563 Arg of perigee: 104.0130 deg Mean anomaly: 256.2370 deg Mean motion: 14.25179310 rev/day Decay rate: 5.1e-07 rev/day^2 Epoch rev: 76832 Checksum: 266
Satellite: RESURS Catalog number: 25394 Epoch time: 13051.88189633 Element set: 311 Inclination: 098.3497 deg RA of node: 033.3729 deg Eccentricity: 0.0001071 Arg of perigee: 175.2104 deg Mean anomaly: 216.8857 deg Mean motion: 14.24321076 rev/day Decay rate: -2.4e-07 rev/day^2 Epoch rev: 75980 Checksum: 293
Satellite: FENGYUN1 Catalog number: 25730 Epoch time: 13051.49365856 Element set: 811 Inclination: 098.8689 deg RA of node: 012.5227 deg Eccentricity: 0.0024469 Arg of perigee: 017.4046 deg Mean anomaly: 119.9072 deg Mean motion: 14.10196910 rev/day Decay rate: 1.987e-05 rev/day^2 Epoch rev: 70959 Checksum: 322
Satellite: OKEAN-0 Catalog number: 25860 Epoch time: 13052.88826141 Element set: 874 Inclination: 097.9763 deg RA of node: 016.9896 deg Eccentricity: 0.0001936 Arg of perigee: 122.3884 deg Mean anomaly: 294.0679 deg Mean motion: 14.74483592 rev/day Decay rate: 3.41e-06 rev/day^2 Epoch rev: 73136 Checksum: 338
Satellite: NOAA-16 Catalog number: 26536 Epoch time: 13052.25597444 Element set: 106 Inclination: 099.0587 deg RA of node: 103.7882 deg Eccentricity: 0.0011305 Arg of perigee: 102.6487 deg Mean anomaly: 257.5961 deg Mean motion: 14.12842356 rev/day Decay rate: 4.09e-06 rev/day^2 Epoch rev: 64020 Checksum: 298
Satellite: NOAA-17 Catalog number: 27453 Epoch time: 13052.23571260 Element set: 30 Inclination: 098.3181 deg RA of node: 072.4342 deg Eccentricity: 0.0012205 Arg of perigee: 142.1681 deg Mean anomaly: 218.0380 deg Mean motion: 14.24541125 rev/day Decay rate: 9.7e-07 rev/day^2 Epoch rev: 55421 Checksum: 249
Satellite: NOAA-18 Catalog number: 28654 Epoch time: 13052.19101675 Element set: 514 Inclination: 099.0827 deg RA of node: 018.8266 deg Eccentricity: 0.0014279 Arg of perigee: 171.7668 deg Mean anomaly: 188.3772 deg Mean motion: 14.11772006 rev/day Decay rate: -3.4e-07 rev/day^2 Epoch rev: 39969 Checksum: 330
Satellite: NOAA-19 Catalog number: 33591 Epoch time: 13052.25492660 Element set: 701 Inclination: 098.8909 deg RA of node: 355.2969 deg Eccentricity: 0.0014661 Arg of perigee: 040.1560 deg Mean anomaly: 320.0713 deg Mean motion: 14.11460466 rev/day Decay rate: 2.55e-06 rev/day^2 Epoch rev: 20814 Checksum: 286
/EX SB KEPS @ AMSAT $ORB13052.M Orbital Elements 13052.MISC
HR AMSAT ORBITAL ELEMENTS FOR MANNED AND MISCELLANEOUS SATELLITES FROM WA5QGD FORT WORTH,TX February 21, 2013 BID: ORB13052.M TO ALL RADIO AMATEURS BT
Satellite: HUBBLE Catalog number: 20580 Epoch time: 13052.14741195 Element set: 180 Inclination: 028.4710 deg RA of node: 313.3562 deg Eccentricity: 0.0003602 Arg of perigee: 192.6782 deg Mean anomaly: 167.3720 deg Mean motion: 15.03301002 rev/day Decay rate: 1.399e-05 rev/day^2 Epoch rev: 5221 Checksum: 239
Satellite: ISS Catalog number: 25544 Epoch time: 13052.78628944 Element set: 268 Inclination: 051.6496 deg RA of node: 321.4988 deg Eccentricity: 0.0012185 Arg of perigee: 301.2326 deg Mean anomaly: 158.4850 deg Mean motion: 15.52697110 rev/day Decay rate: 1.3913e-04 rev/day^2 Epoch rev: 81678 Checksum: 317
Satellite: CO-58 Catalog number: 28895 Epoch time: 13051.65689662 Element set: 409 Inclination: 097.8833 deg RA of node: 272.5778 deg Eccentricity: 0.0018612 Arg of perigee: 088.5573 deg Mean anomaly: 271.7766 deg Mean motion: 14.60968238 rev/day Decay rate: 3.19e-06 rev/day^2 Epoch rev: 38993 Checksum: 384
Satellite: FALCON Catalog number: 30776 Epoch time: 13051.86055906 Element set: 555 Inclination: 035.4303 deg RA of node: 195.5857 deg Eccentricity: 0.0001360 Arg of perigee: 002.6032 deg Mean anomaly: 129.5516 deg Mean motion: 15.09600340 rev/day Decay rate: 3.909e-05 rev/day^2 Epoch rev: 32782 Checksum: 276
Satellite: MAST Catalog number: 31126 Epoch time: 13052.01249611 Element set: 688 Inclination: 097.8770 deg RA of node: 054.5984 deg Eccentricity: 0.0094488 Arg of perigee: 055.3421 deg Mean anomaly: 305.6638 deg Mean motion: 14.54437105 rev/day Decay rate: 4.33e-06 rev/day^2 Epoch rev: 31043 Checksum: 291
Satellite: CAPE1 Catalog number: 31130 Epoch time: 13051.49197478 Element set: 700 Inclination: 097.8904 deg RA of node: 050.4279 deg Eccentricity: 0.0101989 Arg of perigee: 071.6020 deg Mean anomaly: 289.6220 deg Mean motion: 14.53304665 rev/day Decay rate: 4.24e-06 rev/day^2 Epoch rev: 30983 Checksum: 291
Satellite: COMPASS Catalog number: 32787 Epoch time: 13052.19943182 Element set: 549 Inclination: 097.7670 deg RA of node: 113.7302 deg Eccentricity: 0.0013685 Arg of perigee: 328.5245 deg Mean anomaly: 064.5072 deg Mean motion: 14.85003629 rev/day Decay rate: 1.585e-05 rev/day^2 Epoch rev: 26075 Checksum: 307
Satellite: AAUSAT2 Catalog number: 32788 Epoch time: 13052.18142642 Element set: 540 Inclination: 097.7677 deg RA of node: 114.2525 deg Eccentricity: 0.0013245 Arg of perigee: 328.1692 deg Mean anomaly: 099.4445 deg Mean motion: 14.85420856 rev/day Decay rate: 1.588e-05 rev/day^2 Epoch rev: 26078 Checksum: 318
Satellite: DO-64 Catalog number: 32789 Epoch time: 13052.74195017 Element set: 564 Inclination: 097.7824 deg RA of node: 117.9356 deg Eccentricity: 0.0012750 Arg of perigee: 320.5694 deg Mean anomaly: 189.7115 deg Mean motion: 14.87635691 rev/day Decay rate: 3.260e-05 rev/day^2 Epoch rev: 26095 Checksum: 336
Satellite: CO-66 Catalog number: 32791 Epoch time: 13052.72806671 Element set: 536 Inclination: 097.7674 deg RA of node: 113.7483 deg Eccentricity: 0.0014150 Arg of perigee: 327.1898 deg Mean anomaly: 179.7299 deg Mean motion: 14.84238400 rev/day Decay rate: 1.163e-05 rev/day^2 Epoch rev: 26074 Checksum: 329
Satellite: RS-30 Catalog number: 32953 Epoch time: 13052.72193748 Element set: 614 Inclination: 082.5042 deg RA of node: 139.9935 deg Eccentricity: 0.0020032 Arg of perigee: 123.4938 deg Mean anomaly: 236.8061 deg Mean motion: 12.43031552 rev/day Decay rate: 1.0e-07 rev/day^2 Epoch rev: 21556 Checksum: 268
Satellite: METEOR-M Catalog number: 35865 Epoch time: 13052.67986510 Element set: 231 Inclination: 098.6187 deg RA of node: 107.8576 deg Eccentricity: 0.0003277 Arg of perigee: 056.0097 deg Mean anomaly: 304.1389 deg Mean motion: 14.21879995 rev/day Decay rate: -3.4e-07 rev/day^2 Epoch rev: 17805 Checksum: 328
Satellite: RS-38 Catalog number: 35869 Epoch time: 13052.73252895 Element set: 202 Inclination: 098.6122 deg RA of node: 107.8565 deg Eccentricity: 0.0005396 Arg of perigee: 054.5174 deg Mean anomaly: 305.6484 deg Mean motion: 14.22112647 rev/day Decay rate: -2.87e-06 rev/day^2 Epoch rev: 17808 Checksum: 319
Satellite: JUGNU Catalog number: 37839 Epoch time: 13051.97839409 Element set: 336 Inclination: 019.9597 deg RA of node: 290.9456 deg Eccentricity: 0.0018873 Arg of perigee: 084.0883 deg Mean anomaly: 276.1662 deg Mean motion: 14.12125710 rev/day Decay rate: 6.20e-06 rev/day^2 Epoch rev: 7045 Checksum: 321
Satellite: SRMSAT Catalog number: 37841 Epoch time: 13051.80627389 Element set: 337 Inclination: 019.9730 deg RA of node: 301.7252 deg Eccentricity: 0.0011929 Arg of perigee: 039.8635 deg Mean anomaly: 320.2606 deg Mean motion: 14.10201151 rev/day Decay rate: 2.64e-06 rev/day^2 Epoch rev: 7032 Checksum: 262
Satellite: RAX-2 Catalog number: 37853 Epoch time: 13052.45053391 Element set: 432 Inclination: 101.7127 deg RA of node: 212.5761 deg Eccentricity: 0.0239358 Arg of perigee: 358.7851 deg Mean anomaly: 001.2736 deg Mean motion: 14.82376414 rev/day Decay rate: 2.142e-05 rev/day^2 Epoch rev: 7129 Checksum: 284
Satellite: AUBIESAT Catalog number: 37854 Epoch time: 13051.98650476 Element set: 430 Inclination: 101.7162 deg RA of node: 212.5365 deg Eccentricity: 0.0239428 Arg of perigee: 359.0255 deg Mean anomaly: 001.0443 deg Mean motion: 14.82975685 rev/day Decay rate: 2.474e-05 rev/day^2 Epoch rev: 7123 Checksum: 293
